Flag for Mexico Weather past 2 weeks in Mexicali, Baja California, Mexico

Now
62 °F

Clear.


Feels Like: 62 °F
Forecast: 61 / 86 °F
Wind: 8 mph from West

Location: Imperial County Airport

Current Time: May 24, 2015 at 3:12:25 AM

Latest Report: May 24, 2015 at 2:53 AM


Visibility: 10 mi

Pressure: 29.83 "Hg

Humidity: 58%

Dew point: 47 °F

Location of MexicaliLocation

Historic Weather in Mexicali — Graph

°F

Mexicali temperature yesterday

Maximum temperature yesterday: 82 °F (at 2:53 PM)
Minimum temperature yesterday: 61 °F (at 4:53 AM)
Average temperature yesterday: 71 °F

Past Weeks' High & Low Weather Summary

 TemperatureHumidityPressure
High94 °F (May 11, 2:53 PM)97% (May 16, 2:53 AM)29.99 "Hg (May 16, 2:53 AM)
Low50 °F (May 16, 5:53 AM)10% (May 13, 12:53 PM)29.66 "Hg (May 11, 5:53 PM)
Average71 °F40%29.85 "Hg
* Reported May 9 1:53 AM — May 24 1:53 AM, Mexicali, Weather by CustomWeather, © 2015

Note: Actual official high and low records may vary slightly from our data, if they occured in-between our weather recording intervals... More about our weather records

Advertising

Mexicali weather history for previous 24 hours

 ConditionsComfort  
Time TempWeatherWind HumidityBarometerVisibility
1:53 AM
Sun, May 24
63 °FClear.9 mph56%29.85 "Hg10 mi
12:53 AM65 °FClear.10 mph52%29.87 "Hg10 mi
11:53 PM
Sat, May 23
66 °FClear.13 mph52%29.89 "Hg10 mi
10:53 PM67 °FClear.13 mph51%29.89 "Hg10 mi
9:53 PM68 °FLight rain. Clear.13 mph49%29.90 "Hg10 mi
8:53 PM70 °FLight rain. Clear.22 mph46%29.88 "Hg10 mi
7:53 PM72 °FLight rain. Sunny.16 mph43%29.86 "Hg10 mi
6:53 PM76 °FLight rain. Sunny.22 mph37%29.86 "Hg10 mi
5:53 PM82 °FSunny.14 mph29%29.85 "Hg10 mi
4:53 PM82 °FSunny.12 mph28%29.86 "Hg10 mi
3:53 PM82 °FSunny.8 mph26%29.88 "Hg10 mi
2:53 PM82 °FSunny.10 mph26%29.90 "Hg10 mi
1:53 PM80 °FSunny.7 mph27%29.93 "Hg10 mi
12:53 PM80 °FSunny.8 mph29%29.95 "Hg10 mi
11:53 AM78 °FSunny.7 mph31%29.96 "Hg10 mi
10:53 AM76 °FSunny.8 mph36%29.97 "Hg10 mi
9:53 AM74 °FSunny.15 mph40%29.98 "Hg10 mi
8:53 AM72 °FSunny.16 mph44%29.98 "Hg10 mi
7:53 AM69 °FSunny.17 mph49%29.98 "Hg10 mi
6:53 AM64 °FSunny.12 mph56%29.97 "Hg10 mi
5:53 AM61 °FClear.10 mph58%29.95 "Hg10 mi
4:53 AM61 °FClear.9 mph56%29.94 "Hg10 mi
3:53 AM62 °FClear.10 mph54%29.94 "Hg10 mi
Weather by CustomWeather, © 2015

See weather overviewHow to use our weather pages